North Pole, Alaska, United States (99705)
Lat: 64.75N, Lon: 147.35W
Wx Zone: AKZ222
Local Info
Past Weather Observations for Wednesday, August 27, 2014

NOTE: This archive is for the closest National Weather Service station to North Pole. Information may differ from the station used for current weather conditions.

Click here for Long-term Archive

Time Weather Temperature Dewpoint Humidity Pressure Winds Precip Visibility
23:56
Clear
52°F / 11°C 46°F / 8°C 82% 29.71 in
(1006 mb)
Calm - 10SM
22:56
Clear
52°F / 11°C 46°F / 8°C 82% 29.71 in
(1006 mb)
E 5.8 mph
(E 9 kph)
- 10SM
21:56
Clear
54°F / 12°C 48°F / 9°C 82% 29.71 in
(1006 mb)
E 3.5 mph
(E 6 kph)
- 10SM
20:56
Partly Cloudy
54°F / 12°C 48°F / 9°C 82% 29.71 in
(1006 mb)
Calm - 10SM
19:56
Clear
57°F / 14°C 48°F / 9°C 72% 29.71 in
(1006 mb)
NE 3.5 mph
(NE 6 kph)
- 10SM
18:56
Clear
61°F / 16°C 48°F / 9°C 63% 29.71 in
(1006 mb)
SSE 3.5 mph
(SSE 6 kph)
- 10SM
18:55
Mostly Cloudy
61°F / 16°C 48°F / 9°C 63% 29.71 in
(1006 mb)
SE 3.5 mph
(SE 6 kph)
- 25SM
17:55
Mostly Cloudy
63°F / 17°C 45°F / 7°C 52% 29.71 in
(1006 mb)
Variable 3.5 mph
(Variable 6 kph)
- 25SM
16:55
Mostly Cloudy
63°F / 17°C 45°F / 7°C 52% 29.74 in
(1007 mb)
SE 5.8 mph
(SE 9 kph)
- 25SM
15:55
Mostly Cloudy
63°F / 17°C 45°F / 7°C 52% 29.74 in
(1007 mb)
Calm - 25SM
14:55
Mostly Cloudy
63°F / 17°C 45°F / 7°C 52% 29.77 in
(1008 mb)
SSE 5.8 mph
(SSE 9 kph)
- 25SM
13:55
Mostly Cloudy
61°F / 16°C 46°F / 8°C 59% 29.77 in
(1008 mb)
Variable 6.9 mph
(Variable 11 kph)
- 25SM
12:55
Mostly Cloudy
61°F / 16°C 46°F / 8°C 59% 29.8 in
(1009 mb)
E 5.8 mph
(E 9 kph)
- 25SM
11:59
Mostly Cloudy
57°F / 14°C 48°F / 9°C 72% 29.8 in
(1009 mb)
Calm - 25SM
10:55
Mostly Cloudy
55°F / 13°C 48°F / 9°C 77% 29.83 in
(1010 mb)
Variable 4.6 mph
(Variable 7 kph)
- 25SM
09:55
Mostly Cloudy
54°F / 12°C 48°F / 9°C 82% 29.83 in
(1010 mb)
SE 4.6 mph
(SE 7 kph)
- 25SM
09:15
Mostly Cloudy
54°F / 12°C 48°F / 9°C 82% 29.83 in
(1010 mb)
S 3.5 mph
(S 6 kph)
- 25SM
08:55
Mostly Cloudy
52°F / 11°C 48°F / 9°C 88% 29.83 in
(1010 mb)
S 5.8 mph
(S 9 kph)
- 25SM
07:59
Mostly Cloudy
52°F / 11°C 48°F / 9°C 88% 29.83 in
(1010 mb)
SSE 6.9 mph
(SSE 11 kph)
- 25SM
06:55
Overcast
52°F / 11°C 48°F / 9°C 88% 29.83 in
(1010 mb)
SW 8.1 mph
(SW 13 kph)
- 13SM
05:55
Overcast
Showers In Vicinity
52°F / 11°C 48°F / 9°C 88% 29.83 in
(1010 mb)
SW 5.8 mph
(SW 9 kph)
- 13SM
05:22
Overcast
Showers In Vicinity
52°F / 11°C 48°F / 9°C 88% 29.83 in
(1010 mb)
SW 8.1 mph
(SW 13 kph)
- 13SM
04:56
Overcast
52°F / 11°C 48°F / 9°C 88% 29.83 in
(1010 mb)
SW 5.8 mph
(SW 9 kph)
- 10SM
04:45
Overcast
52°F / 11°C 48°F / 9°C 88% 29.83 in
(1010 mb)
SW 4.6 mph
(SW 7 kph)
- 10SM
04:09
Overcast
52°F / 11°C 48°F / 9°C 88% 29.83 in
(1010 mb)
SW 5.8 mph
(SW 9 kph)
- 10SM
03:56
Overcast
52°F / 11°C 48°F / 9°C 88% 29.83 in
(1010 mb)
SW 8.1 mph
(SW 13 kph)
- 10SM
03:54
Overcast
52°F / 11°C 48°F / 9°C 88% 29.83 in
(1010 mb)
SW 8.1 mph
(SW 13 kph)
- 10SM
03:35
Overcast
54°F / 12°C 50°F / 10°C 88% 29.83 in
(1010 mb)
SW 10.4 mph
(SW 17 kph)
- 10SM
02:56
Overcast
54°F / 12°C 50°F / 10°C 88% 29.83 in
(1010 mb)
SW 11.5 mph
(SW 19 kph)
0.01 in
(0.25 mm)
10SM
02:33
Overcast
Light Rain
54°F / 12°C 50°F / 10°C 88% 29.83 in
(1010 mb)
SW 13.8 mph
(SW 22 kph)
0.01 in
(0.25 mm)
7SM
02:26
Overcast
Rain
54°F / 12°C 50°F / 10°C 88% 29.83 in
(1010 mb)
SSW 9.2 mph
(SSW 15 kph)
0.01 in
(0.25 mm)
4SM
02:05
Mostly Cloudy
54°F / 12°C 50°F / 10°C 88% 29.83 in
(1010 mb)
SW 12.7 mph
(SW 20 kph)
- 10SM
01:56
Mostly Cloudy
54°F / 12°C 50°F / 10°C 88% 29.83 in
(1010 mb)
SW 13.8 mph
(SW 22 kph)
- 10SM
01:51
Mostly Cloudy
54°F / 12°C 50°F / 10°C 88% 29.83 in
(1010 mb)
SW 12.7 mph
(SW 20 kph)
- 10SM
01:21
Overcast
54°F / 12°C 50°F / 10°C 88% 29.8 in
(1009 mb)
SW 13.8 mph
(SW 22 kph)
- 10SM
00:56
Overcast
54°F / 12°C 48°F / 9°C 82% 29.8 in
(1009 mb)
SW 11.5 mph
(SW 19 kph)
0.00 in
(0.00 mm)
10SM
00:10
Overcast
Light Rain
54°F / 12°C 52°F / 11°C 94% 29.8 in
(1009 mb)
SSE 4.6 mph
(SSE 7 kph)
0.00 in
(0.00 mm)
10SM
Time Weather Temperature Dewpoint Humidity Pressure Winds Precip Visibility


Weather for websites

WeatherForYou.com, LLC is not responsible for any damages or problems caused by this service. Current weather conditions are obtained from the closest station including government and personal stations which may have varying degrees of accuracy. Weather forecasts are derived from the NOAA NDFD. Like all things, this site belongs to Jesus Christ... He just trusts me to maintain it. If you have any questions or comments email webmaster@weatherforyou.com

Copyright © 2014, WeatherForYou.com LLC. All rights reserved.